Location: Caltech
(34.1382°N, 118.1253°W)
Time: 21:53:54
(UTC-07:00)

Iridium 68 - Visible Passes

Search period start: 28 July 2015 00:00
Search period end: 07 August 2015 00:00
Orbit: 776 x 779 km, 86.4° (Epoch: 28 July)

Date Brightness Start Highest point End Pass type
(mag) Time Alt. Az. Time Alt. Az. Time Alt. Az.
28 Jul 8.6 01:05:18 10° NE 01:06:26 12° ENE 01:06:26 12° ENE visible
28 Jul 7.2 02:43:40 10° N 02:46:54 36° NNW 02:46:54 36° NNW visible
29 Jul 7.3 02:10:04 10° N 02:13:14 37° N 02:13:14 37° N visible
30 Jul 7.9 01:36:53 10° NNE 01:39:35 26° NE 01:39:35 26° NE visible
30 Jul 8.1 03:18:25 10° NW 03:20:02 16° NW 03:20:02 16° NW visible
31 Jul 8.4 01:04:14 10° NNE 01:05:56 16° NE 01:05:56 16° NE visible
31 Jul 7.7 02:44:01 10° NNW 02:46:24 24° NW 02:46:24 24° NW visible
01 Aug 7.6 02:10:10 10° N 02:12:46 30° N 02:12:46 30° N visible
02 Aug 7.9 01:36:43 10° N 01:39:09 27° NNE 01:39:09 27° NNE visible
03 Aug 8.3 01:03:43 10° NNE 01:05:32 19° NE 01:05:32 19° NE visible
03 Aug 8.2 02:44:33 10° NNW 02:45:59 17° NW 02:45:59 17° NW visible
04 Aug 8.7 00:31:28 10° NE 00:31:56 11° NE 00:31:56 11° NE visible
04 Aug 8.0 02:10:25 10° NNW 02:12:23 23° NNW 02:12:23 23° NNW visible
05 Aug 8.0 01:36:44 10° N 01:38:47 24° N 01:38:47 24° N visible
06 Aug 8.3 01:03:26 10° NNE 01:05:11 20° NNE 01:05:11 20° NNE visible
06 Aug 8.6 02:45:23 10° NW 02:45:39 11° NW 02:45:39 11° NW visible
